📊 Raw Sensor Data
Showing records 32101 to 32125 of 84,672 total
| ID | Distance (ft) | Battery V | Battery A | Int Temp (°F) | Int Humid (%) | Ext Temp (°F) | Solar V | RSSI | SNR | Time Stamp |
|---|---|---|---|---|---|---|---|---|---|---|
| 52584 | 15.0 | 4.03 | -5 | 63 | 45 | 65 | 0.00 | -72 | 7 | 09/20/2025 11:15 PM |
| 52583 | 15.0 | 4.03 | -5 | 64 | 45 | 65 | 0.00 | -71 | 7 | 09/20/2025 11:00 PM |
| 52582 | 15.0 | 3.98 | -31 | 64 | 46 | 65 | 0.00 | -71 | 8 | 09/20/2025 10:45 PM |
| 52581 | 15.0 | 4.04 | -5 | 65 | 46 | 65 | 0.10 | -71 | 7 | 09/20/2025 10:15 PM |
| 52580 | 15.0 | 4.04 | -5 | 65 | 46 | 66 | 0.10 | -70 | 8 | 09/20/2025 10:00 PM |
| 52579 | 15.0 | 4.04 | -5 | 66 | 46 | 67 | 0.00 | -70 | 7 | 09/20/2025 09:45 PM |
| 52578 | 15.0 | 3.98 | -5 | 66 | 47 | 67 | 0.00 | -71 | 7 | 09/20/2025 09:30 PM |
| 52577 | 15.0 | 3.98 | -5 | 67 | 47 | 68 | 0.00 | -72 | 8 | 09/20/2025 09:15 PM |
| 52576 | 15.0 | 3.99 | -5 | 68 | 48 | 69 | 0.00 | -71 | 8 | 09/20/2025 09:00 PM |
| 52575 | 15.0 | 3.99 | -5 | 69 | 48 | 69 | 0.00 | -73 | 7 | 09/20/2025 08:45 PM |
| 52574 | 15.0 | 3.99 | -5 | 69 | 49 | 70 | 0.00 | -73 | 8 | 09/20/2025 08:30 PM |
| 52573 | 15.0 | 4.04 | -5 | 71 | 50 | 71 | 0.00 | -74 | 7 | 09/20/2025 08:15 PM |
| 52572 | 15.0 | 4.04 | -5 | 71 | 51 | 71 | 0.00 | -72 | 8 | 09/20/2025 08:00 PM |
| 52571 | 15.0 | 3.99 | -5 | 73 | 52 | 72 | 0.00 | -74 | 7 | 09/20/2025 07:45 PM |
| 52570 | 15.0 | 3.99 | -5 | 75 | 53 | 73 | 0.00 | -73 | 8 | 09/20/2025 07:30 PM |
| 52569 | 15.0 | 3.99 | -32 | 77 | 55 | 74 | 0.80 | -74 | 8 | 09/20/2025 07:15 PM |
| 52568 | 15.0 | 3.98 | -25 | 81 | 55 | 77 | 4.20 | -75 | 7 | 09/20/2025 07:00 PM |
| 52567 | 15.1 | 4.07 | 0 | 87 | 53 | 81 | 4.50 | -74 | 7 | 09/20/2025 06:45 PM |
| 52566 | 15.2 | 4.04 | 14 | 91 | 53 | 84 | 4.50 | -75 | 7 | 09/20/2025 06:30 PM |
| 52565 | 15.1 | 4.09 | 38 | 96 | 50 | 85 | 4.50 | -73 | 9 | 09/20/2025 06:15 PM |
| 52564 | 15.1 | 4.04 | 0 | 99 | 49 | 88 | 5.10 | -74 | 8 | 09/20/2025 06:00 PM |
| 52563 | 15.1 | 4.04 | 0 | 101 | 48 | 91 | 5.10 | -74 | 8 | 09/20/2025 05:45 PM |
| 52562 | 15.2 | 4.04 | 0 | 103 | 47 | 89 | 5.10 | -72 | 7 | 09/20/2025 05:30 PM |
| 52561 | 15.3 | 4.04 | 0 | 104 | 47 | 92 | 5.10 | -73 | 8 | 09/20/2025 05:15 PM |
| 52560 | 15.3 | 4.04 | 0 | 104 | 46 | 92 | 5.10 | -74 | 8 | 09/20/2025 05:00 PM |